Location: Banios
(43.0451°N, 0.2335°E)
Time: 22:55:59
(UTC+00:00)

N. Korean satellite - Pass Details

Date: 06 December 2021
Orbit: 447 x 491 km, 97.3° (Epoch: 21 January)

Event Time Altitude Azimuth Distance (km) Brightness Sun altitude
Rises 05:27:13 0° 8° (N) 2,462 10.1 -19.2°
Reaches altitude 10° 05:29:16 10° 6° (N) 1,583 9.1 -18.8°
Maximum altitude 05:32:37 63° 284° (WNW) 504 6.3 -18.2°
Drops below altitude 10° 05:35:57 10° 203° (SSW) 1,570 9.1 -17.6°
Sets 05:37:58 0° 200° (SSW) 2,439 10.1 -17.3°
